FW9870 Weather Reports


time (UTC)temp
C
wind
direction
speed
KPH
gust
KPH
rain 1hr
cm
rain 24hr
cm
rain mn
cm
humidity
%
barometer
mb
20260505041540 18 219 11.3 25.7 0.00 0.00 0.00 54 1002.2
20260505041023 18 246 12.9 25.7 0.00 0.00 0.00 53 1002.2
20260505040524 18 240 12.9 24.1 0.00 0.00 0.00 53 1002.2
20260505040058 17 231 11.3 27.4 0.00 0.00 0.00 54 1002.1
20260505035521 17 222 14.5 27.4 0.00 0.00 0.00 55 1002.0
20260505035020 15 222 8.0 20.9 0.00 0.00 0.00 58 1001.9
20260505034603 15 239 6.4 12.9 0.00 0.00 0.00 62 1001.8
20260505034023 13 240 4.8 11.3 0.00 0.00 0.00 65 1001.8
20260505033524 12 220 4.8 9.7 0.00 0.00 0.00 69 1001.9
20260505033043 11 234 4.8 9.7 0.00 0.00 0.00 74 1001.9
20260505032547 11 223 3.2 9.7 0.00 0.00 0.00 76 1002.0
20260505032026 11 234 3.2 6.4 0.00 0.00 0.00 77 1002.1
20260505031544 11 234 3.2 4.8 0.00 0.00 0.00 78 1002.0
20260505031022 11 234 3.2 6.4 0.00 0.00 0.00 77 1002.1
20260505030523 11 234 3.2 6.4 0.00 0.00 0.00 77 1002.0
20260505030047 11 234 1.6 4.8 0.00 0.00 0.00 77 1001.8
20260505025521 11 234 3.2 4.8 0.00 0.00 0.00 77 1002.0
20260505025023 11 234 3.2 6.4 0.00 0.00 0.00 76 1002.1
20260505024536 11 234 3.2 6.4 0.00 0.00 0.00 76 1002.1
20260505024021 11 234 3.2 6.4 0.00 0.00 0.00 76 1002.1
20260505023521 11 0 0.0 0.0 0.00 0.00 0.00 76 1002.3
20260505023046 11 0 0.0 0.0 0.00 0.00 0.00 76 1002.4
20260505022521 11 0 0.0 0.0 0.00 0.00 0.00 77 1002.4
20260505022021 11 0 0.0 0.0 0.00 0.00 0.00 76 1002.4
20260505021541 12 0 0.0 0.0 0.00 0.00 0.00 76 1002.4
20260505021024 12 0 0.0 0.0 0.00 0.00 0.00 76 1002.6
20260505020521 12 0 0.0 0.0 0.00 0.00 0.00 75 1002.6
20260505020053 12 0 0.0 0.0 0.00 0.00 0.00 74 1002.6
20260505015522 12 0 0.0 0.0 0.00 0.00 0.00 73 1002.6
20260505015023 12 0 0.0 3.2 0.00 0.00 0.00 72 1002.6
20260505014542 12 0 0.0 4.8 0.00 0.00 0.00 72 1002.6
20260505014021 13 234 1.6 4.8 0.00 0.00 0.00 71 1002.4
20260505013525 13 0 0.0 0.0 0.00 0.00 0.00 69 1002.4
20260505013042 13 0 0.0 0.0 0.00 0.00 0.00 67 1002.4
20260505012522 13 0 0.0 0.0 0.00 0.00 0.00 68 1002.4
20260505012021 14 0 0.0 0.0 0.00 0.00 0.00 67 1002.5
20260505011546 14 0 0.0 0.0 0.00 0.00 0.00 63 1002.4
20260505011021 15 0 0.0 0.0 0.00 0.00 0.00 62 1002.4
20260505010521 15 0 0.0 0.0 0.00 0.00 0.00 60 1002.4
20260505010104 15 0 0.0 0.0 0.00 0.00 0.00 60 1002.4
20260505005521 15 0 0.0 0.0 0.00 0.00 0.00 58 1002.5
20260505005021 16 0 0.0 0.0 0.00 0.00 0.00 59 1002.4
20260505004558 16 0 0.0 0.0 0.00 0.00 0.00 54 1002.3
20260505004021 16 0 0.0 0.0 0.00 0.00 0.00 54 1002.2
20260505003525 17 0 0.0 0.0 0.00 0.00 0.00 53 1002.3
20260505003042 17 0 0.0 0.0 0.00 0.00 0.00 51 1002.1
20260505002521 17 0 0.0 0.0 0.00 0.00 0.00 50 1002.1
20260505002110 18 0 0.0 0.0 0.00 0.00 0.00 50 1002.2
20260505001543 18 0 0.0 0.0 0.00 0.00 0.00 50 1002.3
20260505001025 19 0 0.0 0.0 0.00 0.00 0.00 48 1002.3
20260505000523 20 0 0.0 0.0 0.00 0.00 0.00 47 1002.1
20260505000041 20 0 0.0 0.0 0.00 0.00 0.00 45 1002.2
20260504235523 21 0 0.0 3.2 0.00 0.00 0.00 40 1002.2
20260504235021 21 0 0.0 3.2 0.00 0.00 0.00 39 1002.2
20260504234544 22 234 1.6 6.4 0.00 0.00 0.00 38 1002.3
20260504234021 22 234 3.2 8.0 0.00 0.00 0.00 36 1002.3
20260504233521 22 234 3.2 8.0 0.00 0.00 0.00 35 1002.2
20260504233046 22 234 3.2 8.0 0.00 0.00 0.00 35 1002.2
20260504232521 22 245 3.2 8.0 0.00 0.00 0.00 35 1002.1
20260504232020 22 229 4.8 8.0 0.00 0.00 0.00 35 1002.1
20260504231558 22 227 3.2 8.0 0.00 0.00 0.00 36 1002.0
20260504231020 22 230 3.2 11.3 0.00 0.00 0.00 35 1002.0
20260504230524 22 234 4.8 16.1 0.00 0.00 0.00 34 1002.1
20260504230042 23 246 6.4 17.7 0.00 0.00 0.00 34 1002.0
20260504225521 23 238 9.7 24.1 0.00 0.00 0.00 32 1001.9
20260504225021 23 211 8.0 24.1 0.00 0.00 0.00 35 1001.9
20260504224543 23 219 4.8 14.5 0.00 0.00 0.00 35 1002.0
20260504224021 23 217 8.0 19.3 0.00 0.00 0.00 33 1002.1
20260504223520 23 244 9.7 19.3 0.00 0.00 0.00 32 1002.2
20260504223041 23 250 8.0 22.5 0.00 0.00 0.00 33 1002.2
20260504222521 23 238 8.0 22.5 0.00 0.00 0.00 34 1002.2
20260504222025 23 212 14.5 22.5 0.00 0.00 0.00 33 1002.3
20260504221612 23 236 9.7 24.1 0.00 0.00 0.00 32 1002.3
20260504221023 23 245 12.9 24.1 0.00 0.00 0.00 34 1002.3
20260504220523 23 210 12.9 22.5 0.00 0.00 0.00 32 1002.3
20260504220043 23 210 9.7 22.5 0.00 0.00 0.00 34 1002.4
20260504215522 23 263 14.5 22.5 0.00 0.00 0.00 33 1002.4
20260504215024 23 271 9.7 25.7 0.00 0.00 0.00 34 1002.4
20260504214538 23 241 14.5 25.7 0.00 0.00 0.00 33 1002.5
20260504214022 23 252 12.9 22.5 0.00 0.00 0.00 33 1002.5
20260504213523 23 254 11.3 22.5 0.00 0.00 0.00 32 1002.5
20260504213044 23 244 11.3 27.4 0.00 0.00 0.00 34 1002.6
20260504212523 23 242 8.0 30.6 0.00 0.00 0.00 35 1002.7
20260504212022 23 228 19.3 30.6 0.00 0.00 0.00 31 1002.7
20260504211541 23 213 12.9 25.7 0.00 0.00 0.00 36 1002.7
20260504211023 23 261 14.5 25.7 0.00 0.00 0.00 34 1002.8
20260504210523 23 284 12.9 25.7 0.00 0.00 0.00 34 1002.7
20260504210047 23 252 12.9 27.4 0.00 0.00 0.00 34 1002.7
20260504205524 23 197 11.3 29.0 0.00 0.00 0.00 37 1002.7
20260504205026 23 271 16.1 29.0 0.00 0.00 0.00 37 1002.7
20260504204542 22 238 16.1 29.0 0.00 0.00 0.00 37 1002.8
20260504204024 22 256 17.7 29.0 0.00 0.00 0.00 36 1002.8
20260504203523 22 226 12.9 29.0 0.00 0.00 0.00 39 1002.9
20260504203045 22 260 16.1 29.0 0.00 0.00 0.00 38 1003.0
20260504202523 23 229 11.3 30.6 0.00 0.00 0.00 37 1003.0
20260504202023 23 248 16.1 30.6 0.00 0.00 0.00 36 1003.1
20260504201544 23 274 16.1 27.4 0.00 0.00 0.00 37 1003.1
20260504201022 23 242 9.7 33.8 0.00 0.00 0.00 39 1003.1
20260504200524 22 241 17.7 33.8 0.00 0.00 0.00 37 1003.4
20260504200041 23 200 11.3 25.7 0.00 0.00 0.00 40 1003.4
20260504195523 22 194 14.5 25.7 0.00 0.00 0.00 37 1003.5
20260504195023 22 232 16.1 29.0 0.00 0.00 0.00 37 1003.5
20260504194549 23 240 17.7 30.6 0.00 0.00 0.00 37 1003.5
20260504194023 22 264 16.1 30.6 0.00 0.00 0.00 40 1003.6
20260504193523 22 264 12.9 27.4 0.00 0.00 0.00 38 1003.5
20260504193046 22 282 19.3 27.4 0.00 0.00 0.00 38 1003.7
20260504192523 22 271 12.9 27.4 0.00 0.00 0.00 41 1003.8
20260504192025 22 292 12.9 27.4 0.00 0.00 0.00 43 1003.7
20260504191608 22 261 12.9 27.4 0.00 0.00 0.00 40 1003.6
20260504191023 22 281 12.9 27.4 0.00 0.00 0.00 44 1003.7
20260504190523 22 243 14.5 29.0 0.00 0.00 0.00 43 1003.8
20260504190045 21 263 16.1 29.0 0.00 0.00 0.00 46 1003.9
20260504185522 21 229 19.3 32.2 0.00 0.00 0.00 43 1003.9
20260504185022 21 207 19.3 32.2 0.00 0.00 0.00 46 1003.9
20260504184554 21 227 14.5 30.6 0.00 0.00 0.00 43 1004.0
20260504184023 21 289 16.1 30.6 0.00 0.00 0.00 45 1004.0
20260504183522 21 300 16.1 29.0 0.00 0.00 0.00 43 1004.1
20260504183041 21 269 17.7 35.4 0.00 0.00 0.00 42 1004.3
20260504182527 21 309 17.7 40.2 0.00 0.00 0.00 43 1004.3
20260504182022 21 211 20.9 40.2 0.00 0.00 0.00 44 1004.2
20260504181542 21 236 17.7 35.4 0.00 0.00 0.00 43 1004.2
20260504181023 21 236 17.7 30.6 0.00 0.00 0.00 44 1004.4
20260504180524 21 272 16.1 30.6 0.00 0.00 0.00 46 1004.4
20260504180040 21 234 17.7 29.0 0.00 0.00 0.00 47 1004.4
20260504175523 21 258 12.9 29.0 0.00 0.00 0.00 46 1004.4
20260504175023 21 247 11.3 37.0 0.00 0.00 0.00 46 1004.5
20260504174544 20 257 19.3 37.0 0.00 0.00 0.00 45 1004.7
20260504174023 20 257 24.1 33.8 0.00 0.00 0.00 45 1004.6
20260504173523 20 239 17.7 35.4 0.00 0.00 0.00 47 1004.7
20260504173044 20 223 22.5 35.4 0.00 0.00 0.00 49 1004.7
20260504172522 20 202 14.5 32.2 0.00 0.00 0.00 47 1004.6
20260504172023 20 225 16.1 25.7 0.00 0.00 0.00 47 1004.8
20260504171546 20 240 16.1 25.7 0.00 0.00 0.00 49 1004.9
20260504171025 20 245 16.1 29.0 0.00 0.00 0.00 47 1005.0
20260504170522 20 225 14.5 29.0 0.00 0.00 0.00 49 1004.9
20260504151111 17 221 14.5 29.0 0.00 0.00 0.00 51 1005.5
20260504150526 17 242 12.9 27.4 0.00 0.00 0.00 54 1005.5
20260504141026 16 236 19.3 35.4 0.00 0.00 0.00 53 1005.7
20260504140523 16 220 16.1 30.6 0.00 0.00 0.00 52 1005.8
20260504130523 15 219 12.9 25.7 0.00 0.00 0.00 55 1006.4
20260504110520 12 218 14.5 30.6 0.00 0.00 0.00 55 1006.1
20260504100522 11 200 14.5 24.1 0.00 0.00 0.00 55 1006.0
20260504081544 11 212 12.9 22.5 0.00 0.00 0.00 57 1006.5
20260504081025 11 224 9.7 19.3 0.00 0.00 0.00 57 1006.5
20260504080522 11 223 12.9 24.1 0.00 0.00 0.00 56 1006.4
20260504050523 12 232 9.7 20.9 0.00 0.00 0.00 61 1007.6
20260504045523 11 239 8.0 19.3 0.00 0.00 0.00 65 1007.7
20260504045023 10 242 4.8 11.3 0.00 0.00 0.00 68 1007.6
20260504044539 10 229 3.2 8.0 0.00 0.00 0.00 72 1007.7
20260504044023 10 220 0.0 4.8 0.00 0.00 0.00 75 1007.7
20260504043531 9 0 0.0 0.0 0.00 0.00 0.00 77 1007.6
20260504043042 9 0 0.0 0.0 0.00 0.00 0.00 76 1007.7
20260504042523 9 0 0.0 0.0 0.00 0.00 0.00 78 1007.7
20260504042023 9 0 0.0 0.0 0.00 0.00 0.00 79 1007.7